CAPE
1029 952 728 628 1727 1656 1905 1959 2189 2362 2252 1913 1830 1901 1983 1224 1505 1580 697 2214 1391 1399 2068 1685 302 1561 1834 2317 1893 1422 1238 1121 1327 1815 1254 658 651 411 437 72 1 0 0
698 779 910 772 668 1846 1941 2199 2243 2444 2175 2178 2040 2218 2114 1855 1039 1784 1302 1049 1362 1906 1504 2325 1863 1190 1265 1642 2061 1993 1938 1499 1331 1231 1213 585 626 399 94 8 73 0 0
946 1039 1116 1131 1057 1438 1832 2581 2299 2669 2171 2247 2205 2239 2492 1980 1261 1216 1214 1376 1332 1189 1620 1786 2292 2175 2496 926 1503 1787 1932 1220 1318 1488 1129 385 493 348 297 103 30 19 0
1069 1038 1010 1147 1208 1563 1611 2263 2577 2771 2518 2561 2069 2193 1878 1517 1510 1240 1273 1305 1500 1006 1009 1782 2098 2152 1931 1966 1743 1475 1445 2001 1362 1189 1471 1794 936 620 293 149 28 9 7
1388 1172 1208 1255 1422 1752 1672 2183 2591 2992 2712 2482 2612 2211 2200 1867 1985 1576 1421 1612 1228 1500 1282 1682 1853 1510 1193 1472 2357 1946 2113 1651 1680 1482 1128 1425 1222 1058 205 11 102 34 36
1576 1484 1513 1552 1590 1771 1903 2146 2938 3113 3235 2885 2534 2835 2388 2193 2447 1713 1361 1149 1066 1005 1326 1280 1566 1317 1154 1873 1979 2063 2083 2003 1498 2179 1782 1430 436 558 460 164 58 12 28
1386 1716 1716 1565 1543 1680 1787 2213 3054 3203 3339 3162 2895 2689 2841 2653 2485 2121 1834 1477 1699 1176 995 1074 1004 928 1627 1857 2236 2301 2071 2268 1429 1929 2036 1052 1729 595 283 124 36 6 27
504 1424 1659 1804 1838 1780 1876 2319 3009 3227 3365 3181 3047 2972 3134 2434 2351 2226 1599 1820 1311 1245 1095 811 513 1081 1616 1092 1849 1662 1334 2020 1817 1542 1886 1712 1514 640 158 274 49 12 88
450 538 1738 1994 2131 1986 2014 2453 3024 3200 3292 3030 3269 3030 2740 2563 2147 2503 1998 2016 2069 1971 1423 1453 1075 860 498 439 1545 1354 2014 1794 1505 1840 1092 1312 1047 1015 558 332 292 71 16
548 550 589 1265 2244 2109 2272 2369 2999 2996 3239 2998 3212 3065 2727 2570 2428 2465 2101 2138 1931 2312 1910 1945 2081 1870 1348 920 1219 1929 2151 2050 1622 1384 1207 1404 1232 1132 801 781 411 396 200
857 744 890 933 1201 2151 2402 2530 2700 2790 3200 3056 3004 2936 2710 2510 2426 2299 2494 2559 2185 2488 1991 2234 1705 2151 1904 2084 1874 2151 2206 1919 1094 899 1092 914 1384 1428 716 262 351 418 213
922 1009 1049 1229 1354 2023 1913 2457 2327 2331 2922 3069 3438 3019 2992 2358 2216 2250 2404 2535 2484 2577 2206 1801 2096 2142 1778 2007 1823 1582 2233 1335 1143 658 553 287 326 515 717 148 435 1080 22
543 889 1088 1380 1623 1785 2083 2230 2389 2538 2662 3039 3080 3020 2843 3023 2210 2146 2294 2318 2637 2546 2421 1875 2011 2014 1750 1815 1503 1512 1374 1124 1012 512 353 257 631 486 375 333 223 524 121
1059 559 849 1325 1804 2299 2451 2818 2586 2491 2856 2881 2922 3005 2960 2453 2342 2541 2308 2243 2544 2503 2180 1642 1597 1889 2129 2005 1826 1827 945 864 692 255 153 224 131 212 81 1 131 381 287
334 1021 781 1809 2583 3101 3446 3391 2882 2983 2759 3302 2915 3282 3042 3027 3338 2807 2583 2637 2482 1980 1366 1703 1152 1301 1305 1588 1967 1417 833 433 70 16 83 60 2 0 0 2 118 389 218
500 581 1290 1954 2882 2777 4119 3446 3498 3079 2994 3522 3160 3665 3525 3307 3393 3117 2742 2613 1890 1234 1138 1287 770 857 1084 1016 1153 1014 838 351 40 26 6 0 0 0 0 0 74 0 198
495 850 1106 2238 2674 2910 3770 3749 3494 4050 4102 4621 4268 3634 3399 3269 3218 3015 2637 2260 1961 1861 1159 1245 1152 887 1109 1008 739 493 192 85 5 0 0 0 0 0 0 0 0 0 0
998 1244 886 2295 2714 2363 2752 2999 3179 4375 4340 4443 4063 3800 3537 3139 3027 2946 2459 1428 2132 1964 1295 1529 947 750 482 412 318 48 74 1 0 0 0 0 0 0 0 0 0 0 0
637 1010 539 882 3350 3466 3810 3645 3675 4163 4242 4076 3769 3963 3358 3036 2951 2458 1816 1627 2135 1939 1276 1266 908 689 521 88 32 2 7 0 0 0 0 0 0 0 0 0 0 0 0
1310 1731 1553 1205 2319 3005 3703 3693 3960 4037 3313 3933 3816 4007 3454 3137 2745 2279 2133 2159 2133 2188 1778 1104 680 948 443 44 48 0 7 3 0 0 0 0 0 0 0 0 6 0 0
1403 2047 2237 2364 2916 3323 3528 3714 4165 3993 3988 4200 4145 3968 3608 3244 3045 2739 2346 2294 2190 1923 1588 1259 1251 1431 862 18 5 0 3 0 0 0 0 0 0 0 0 0 0 0 0
2407 1774 2732 3082 4361 3984 4177 4064 4086 4357 4181 4245 4149 3878 3664 2912 2574 2738 2691 2150 1985 2027 1865 1685 1595 1265 869 122 0 0 0 0 0 0 0 0 0 0 0 0 0 0 0
2673 2652 2628 2981 4143 4089 4368 4335 4525 4428 4262 4250 4072 3764 3577 3055 2810 2830 2556 2269 2411 1921 1760 1986 1713 1413 1196 210 56 0 0 0 0 0 0 0 0 0 0 0 0 0 0
2154 2191 3119 3041 3523 4160 4573 4361 4441 4523 4415 4355 4067 3775 3511 3063 3074 2652 2804 2294 2139 2022 1276 1580 1533 1402 1140 761 307 115 26 0 0 0 0 0 0 0 0 0 0 0 0
994 1993 2788 3586 3700 4343 4366 4056 4150 4451 4331 4332 3953 3778 3392 2539 2983 2564 2335 1951 1945 1755 1633 1186 1648 1532 1544 1360 827 343 195 18 0 0 0 0 0 0 0 0 0 0 0
495 1214 2105 3043 3557 3654 4170 4099 3867 4191 4049 4012 3718 3394 3010 2685 2356 2535 2282 1629 1607 1644 1451 1283 1573 1628 1430 1364 911 488 198 155 19 0 0 0 0 0 0 0 0 0 0
CIN
-22 -4 -7 -12 -21 -42 -36 -21 -6 -13 -7 -4 -3 -3 -4 -23 -10 -15 -46 -7 -12 -21 -3 -36 -122 -31 -24 -8 -11 -13 -21 -55 -39 -29 -9 -31 -34 -34 -43 -258 -3 -0 -0
-26 -50 -38 -13 -14 -19 -26 -10 -5 -12 -12 -1 -1 -5 -11 -11 -24 -11 -23 -20 -9 -1 -9 -4 -13 -52 -38 -16 -5 -4 -12 -22 -31 -16 -15 -7 -14 -42 -150 -190 -248 -0 -0
-38 -20 -28 -43 -17 -4 -12 -7 -25 -8 -11 -7 -4 -3 -3 -7 -18 -18 -15 -8 -11 -12 -2 -2 -2 -2 -8 -36 -5 -7 -11 -20 -28 -28 -26 -36 -14 -23 -49 -180 -188 -28 -0
-42 -50 -58 -20 -43 -9 -20 -7 -7 -7 -7 -4 -5 -2 -0 -0 -2 -13 -9 -23 -7 -19 -13 -2 -1 -0 -6 -11 -8 -5 -10 -5 -30 -55 -40 -27 -72 -12 -25 -152 -132 -0 -16
-32 -48 -56 -39 -1 -21 -25 -7 -16 -5 -8 -6 -2 -4 -1 -1 -3 -4 -24 -22 -14 -4 -1 -2 -1 -2 -17 -9 -2 -4 -2 -10 -25 -34 -56 -38 -51 -29 -112 -316 -209 -34 -26
-29 -41 -37 -21 -1 -14 -17 -3 -11 -5 -2 -7 -9 -2 -3 -2 -6 -14 -34 -12 -19 -7 -5 -3 -3 -4 -15 -5 -2 -2 -4 -8 -32 -34 -64 -23 -54 -45 -26 -140 -227 -10 -19
-12 -23 -31 -25 -16 -15 -16 -5 -12 -4 -2 -1 -0 -3 -0 -2 -2 -5 -13 -10 -10 -10 -24 -21 -21 -18 -9 -7 -3 -2 -4 -7 -28 -21 -29 -35 -33 -78 -89 -193 -333 -28 -21
-3 -19 -24 -37 -53 -35 -19 -9 -6 -20 -0 -0 -1 -1 -1 -1 -0 -3 -2 -5 -13 -22 -24 -48 -71 -32 -11 -38 -1 -7 -11 -6 -26 -28 -11 -60 -65 -17 -190 -181 -381 -27 -131
-16 -10 -20 -24 -45 -55 -29 -16 -20 -27 -0 -0 -1 -2 -4 -2 -1 -7 -16 -10 -4 -9 -36 -36 -43 -63 -96 -102 -8 -3 -6 -8 -31 -32 -24 -55 -64 -55 -49 -87 -167 -201 -33
-22 -20 -16 -5 -34 -28 -20 -6 -13 -19 -2 -0 -0 -0 -7 -6 -2 -3 -8 -4 -2 -5 -8 -12 -6 -11 -22 -56 -28 -9 -4 -12 -33 -40 -22 -19 -48 -76 -42 -44 -131 -133 -200
-9 -16 -22 -19 -9 -7 -5 -6 -6 -2 -0 -1 -2 -4 -13 -8 -4 -0 -2 -2 -2 -5 -8 -8 -10 -4 -2 -1 -7 -3 -4 -11 -33 -6 -18 -20 -47 -50 -65 -157 -168 -135 -193
-7 -25 -27 -31 -18 -5 -8 -12 -16 -1 -1 -2 -7 -5 -11 -18 -18 -6 -3 -3 -1 -2 -9 -11 -6 -3 -7 -5 -8 -10 -2 -22 -26 -12 -26 -50 -38 -52 -41 -222 -104 -40 -127
-10 -3 -29 -24 -9 -2 -2 -1 -6 -0 -1 -5 -5 -4 -3 -0 -4 -16 -10 -14 -2 -2 -2 -10 -6 -4 -4 -4 -16 -16 -14 -22 -11 -24 -25 -30 -6 -20 -59 -91 -150 -40 -230
-20 -19 -2 -16 -29 -15 -19 -9 -14 -2 -4 -3 -2 -4 -1 -2 -2 -9 -19 -17 -7 -2 -1 -11 -12 -4 -2 -4 -7 -4 -23 -24 -6 -47 -49 -27 -55 -31 -262 -115 -219 -66 -134
-5 -9 -27 -10 -46 -36 -32 -37 -11 -10 -3 -8 -5 -9 -8 -5 -9 -13 -20 -6 -6 -6 -21 -4 -27 -24 -25 -1 -2 -7 -17 -48 -93 -160 -93 -91 -17 -0 -0 -68 -277 -80 -132
-11 -15 -22 -23 -36 -52 -31 -43 -20 -16 -12 -18 -7 -27 -21 -15 -6 -7 -10 -4 -18 -34 -28 -12 -43 -31 -6 -3 -9 -8 -4 -35 -215 -202 -200 -0 -0 -0 -0 -0 -331 -0 -191
-10 -18 -16 -21 -33 -42 -47 -29 -25 -12 -16 -15 -16 -47 -27 -9 -4 -5 -5 -1 -5 -1 -19 -12 -15 -24 -15 -18 -20 -24 -75 -109 -44 -0 -0 -0 -0 -0 -0 -0 -0 -0 -0
-20 -22 -20 -11 -45 -52 -70 -50 -21 -12 -19 -17 -14 -28 -10 -7 -6 -2 -2 -28 -0 -0 -19 -5 -22 -20 -23 -48 -54 -122 -126 -126 -0 -0 -0 -0 -0 -0 -0 -0 -0 -0 -0
-17 -18 -24 -7 -37 -29 -28 -40 -9 -6 -18 -11 -17 -6 -4 -3 -1 -1 -9 -16 -0 -0 -25 -27 -33 -17 -14 -66 -85 -35 -133 -0 -0 -0 -0 -0 -0 -0 -0 -0 -0 -0 -0
-31 -24 -26 -3 -27 -39 -49 -34 -7 -11 -61 -14 -7 -2 -1 -1 -1 -3 -1 -2 -0 -0 -8 -23 -45 -1 -33 -75 -56 -0 -36 -7 -0 -0 -0 -0 -0 -0 -0 -0 -87 -0 -0
-35 -40 -38 -13 -10 -66 -56 -42 -1 -8 -5 -1 -1 -1 -1 -1 -1 -1 -1 -1 -1 -2 -9 -15 -6 -2 -24 -118 -48 -0 -77 -0 -0 -0 -0 -0 -0 -0 -0 -0 -0 -0 -0
-57 -31 -6 -4 -24 -43 -35 -22 -4 -4 -8 -2 -1 -0 -0 -0 -0 -1 -1 -2 -2 -0 -1 -1 -0 -0 -22 -75 -0 -0 -3 -6 -0 -0 -0 -0 -0 -0 -0 -0 -0 -0 -0
-101 -68 -25 -7 -8 -19 -3 -3 -1 -2 -2 -0 -0 -0 -0 -1 -3 -1 -0 -0 -1 -0 -0 -0 -0 -0 -3 -71 -76 -0 -0 -0 -0 -0 -0 -0 -0 -0 -0 -0 -0 -0 -0
-122 -139 -69 -28 -1 -4 -2 -3 -2 -0 -0 -0 -0 -0 -0 -0 -1 -0 -0 -0 -0 -0 -11 -1 -6 -9 -2 -31 -42 -54 -59 -0 -0 -0 -0 -0 -0 -0 -0 -0 -0 -0 -0
-206 -144 -92 -20 -17 -3 -3 -1 -6 -1 -0 -0 -0 -0 -2 -19 -0 -1 -28 -48 -31 -28 -27 -71 -15 -18 -0 -12 -61 -69 -46 -70 -0 -0 -0 -0 -0 -0 -0 -0 -0 -0 -0
-229 -185 -114 -58 -30 -24 -2 -3 -1 -8 -3 -0 -0 -0 -2 -14 -8 -0 -4 -65 -46 -26 -48 -32 -8 -8 -25 -6 -27 -67 -64 -49 -153 -0 -0 -0 -0 -0 -0 -0 -0 -0 -0
Wind_Speed
26 30 26 29 32 31 29 23 23 17 14 9 9 7 8 12 10 9 10 13 11 8 19 20 16 13 12 8 7 9 4 7 8 1 0 1 2 5 9 nan nan nan nan
33 31 32 27 26 28 27 23 19 20 15 11 9 8 6 8 9 10 10 10 9 7 14 17 12 15 10 7 8 6 6 6 7 0 2 5 1 4 nan nan nan nan nan
38 39 34 26 25 25 22 22 20 20 17 13 8 7 6 7 8 11 10 10 7 9 10 13 15 13 12 13 6 7 7 6 6 4 2 5 8 9 8 10 nan nan nan
43 41 36 27 29 25 19 21 18 22 17 15 10 10 7 8 10 10 10 9 11 8 11 15 15 14 13 11 7 10 7 5 8 8 1 6 11 9 9 10 nan nan nan
42 42 36 31 28 28 23 19 18 15 17 14 9 10 7 7 11 11 11 10 10 11 7 14 18 19 17 13 11 10 8 7 7 8 6 4 6 8 11 nan 11 nan nan
42 36 32 31 30 30 28 23 18 13 14 15 12 10 11 7 7 11 11 11 12 10 10 12 18 17 13 18 16 14 6 5 7 10 8 6 4 8 11 14 nan nan nan
37 35 33 30 30 31 25 25 22 18 14 13 13 11 10 10 4 7 10 9 12 10 10 12 17 18 18 15 23 19 11 9 7 12 9 7 6 4 11 13 nan nan nan
18 45 37 31 31 34 28 26 24 16 14 13 12 12 11 11 9 10 10 9 9 9 9 13 14 15 17 18 21 22 14 10 9 14 15 12 8 1 11 12 nan nan nan
10 15 42 36 30 31 30 27 24 16 13 15 12 13 11 8 8 11 12 12 8 8 15 16 13 11 10 13 24 21 17 16 13 16 12 11 9 5 8 14 16 nan nan
13 14 14 32 33 31 29 25 24 22 20 15 14 12 11 10 5 11 12 13 11 8 11 15 15 15 11 10 24 23 23 17 12 17 13 14 14 11 3 6 12 14 17
26 17 17 18 26 30 29 25 22 20 21 17 16 15 15 15 11 8 13 13 14 15 12 13 14 15 14 14 11 29 23 19 17 23 19 16 14 10 5 2 7 14 21
31 24 21 19 20 25 21 23 22 20 20 19 14 18 18 15 18 15 16 16 16 18 17 15 15 16 18 15 15 18 24 25 22 24 22 16 14 9 7 2 4 8 nan
19 29 28 25 21 20 22 23 26 19 24 23 25 21 17 17 17 18 22 18 18 19 17 18 17 16 17 18 19 22 15 25 25 24 20 18 13 8 9 5 3 12 19
24 16 25 26 24 22 21 23 23 22 19 23 26 25 22 17 16 15 23 20 20 18 15 18 17 16 17 20 22 21 24 19 33 23 21 18 14 7 nan nan 3 9 15
27 22 10 25 25 24 26 22 20 19 22 21 24 25 24 22 21 23 26 24 22 16 15 18 16 18 19 20 21 20 22 21 nan nan nan nan nan nan nan nan 4 11 12
31 22 17 16 28 28 29 29 23 20 22 22 25 23 30 27 30 29 32 25 18 17 15 18 18 25 18 25 22 17 17 25 nan nan nan nan nan nan nan nan nan nan 9
32 27 23 25 19 29 32 32 27 21 21 21 25 30 34 30 25 23 25 18 18 19 16 19 22 28 19 24 22 19 15 nan nan nan nan nan nan nan nan nan nan nan nan
28 29 24 34 32 26 30 29 28 21 23 23 24 30 32 24 20 20 15 9 14 15 17 18 18 21 22 19 20 nan nan nan nan nan nan nan nan nan nan nan nan nan nan
34 25 11 35 35 27 28 33 26 25 22 25 25 29 34 24 20 19 12 11 11 13 12 20 28 29 26 nan nan nan nan nan nan nan nan nan nan nan nan nan nan nan nan
26 21 14 24 32 24 28 27 28 28 28 23 22 25 33 23 18 19 14 12 11 11 18 21 27 11 16 nan nan nan nan nan nan nan nan nan nan nan nan nan nan nan nan
29 24 20 18 26 25 30 28 26 27 27 23 20 21 24 20 18 17 16 15 13 14 18 24 23 20 22 nan nan nan nan nan nan nan nan nan nan nan nan nan nan nan nan
28 24 21 22 34 30 29 28 26 31 32 27 19 18 18 16 18 18 15 16 14 15 16 20 24 26 28 25 nan nan nan nan nan nan nan nan nan nan nan nan nan nan nan
29 27 22 26 30 30 25 29 29 31 30 24 20 19 16 15 18 17 15 15 17 16 17 20 25 25 27 25 nan nan nan nan nan nan nan nan nan nan nan nan nan nan nan
28 29 24 27 21 28 31 29 29 28 29 25 23 22 20 16 17 15 14 16 15 17 16 20 20 15 16 22 20 18 nan nan nan nan nan nan nan nan nan nan nan nan nan
32 32 28 27 25 22 28 28 27 28 25 24 24 21 22 24 21 19 20 8 15 17 18 17 10 9 10 13 17 20 25 nan nan nan nan nan nan nan nan nan nan nan nan
33 35 34 32 30 27 20 27 25 28 25 24 23 21 21 23 21 21 17 15 14 17 18 10 7 5 7 16 19 22 14 18 nan nan nan nan nan nan nan nan nan nan nan
Wind_Direction
358 347 358 353 331 327 329 333 322 320 316 319 338 329 299 285 279 249 244 262 224 249 212 230 210 182 193 200 200 128 162 140 132 98 92 205 4 345 12 nan nan nan nan
352 356 346 349 358 332 332 335 331 330 334 330 348 340 315 297 302 282 256 265 224 208 206 211 224 201 203 193 231 146 150 119 102 124 358 352 351 19 nan nan nan nan nan
350 350 351 342 344 337 327 329 327 328 331 320 326 326 305 291 288 295 281 253 254 218 173 213 217 213 209 231 218 221 163 131 133 105 313 327 326 350 356 348 nan nan nan
350 353 348 347 343 341 336 323 327 322 320 319 328 340 330 322 313 300 288 266 271 235 213 211 209 216 213 214 230 239 211 163 140 162 109 325 327 350 359 1 nan nan nan
355 352 349 352 353 340 341 325 322 315 317 325 333 331 334 318 308 308 300 278 262 268 232 213 225 220 226 235 233 243 220 180 147 179 213 320 341 355 338 nan 356 nan nan
341 356 349 343 336 331 338 327 319 321 312 318 335 342 337 332 281 302 291 274 266 266 255 234 230 227 242 232 230 226 223 198 158 181 196 208 291 339 332 339 nan nan nan
330 342 352 347 342 340 351 326 319 321 332 311 319 333 336 322 318 306 297 276 260 256 257 258 246 242 249 243 217 214 214 202 177 200 212 221 207 298 326 342 nan nan nan
355 345 346 347 342 340 346 331 319 318 330 322 312 311 329 315 321 319 315 303 276 275 270 268 254 254 249 253 216 206 203 211 204 188 225 203 184 15 326 350 nan nan nan
343 347 341 343 350 341 351 338 320 324 327 338 328 313 322 320 313 307 309 295 291 246 270 272 264 276 250 259 200 208 203 219 213 193 231 200 175 215 336 344 348 nan nan
331 335 338 335 336 342 344 340 329 336 338 350 330 327 328 321 325 304 303 302 300 270 259 280 271 269 273 252 212 203 216 221 199 206 239 201 197 198 280 6 349 353 349
304 316 323 326 330 331 338 343 336 344 341 348 339 332 322 325 318 307 303 297 298 286 270 264 263 261 258 255 252 218 215 219 203 214 222 209 193 206 165 293 353 359 351
297 311 315 323 322 326 338 335 337 346 336 336 331 324 321 321 320 318 306 303 300 285 273 264 258 258 255 255 258 232 225 230 202 203 218 198 200 197 171 218 315 318 nan
294 313 321 325 320 324 324 329 332 330 321 329 330 325 317 314 313 311 306 305 305 291 276 263 256 252 248 257 260 263 263 230 188 214 206 198 203 204 165 206 44 335 334
299 303 322 329 328 321 325 324 330 332 325 329 331 330 321 321 317 298 301 306 302 284 269 258 252 248 253 261 263 263 273 237 195 218 206 205 207 190 nan nan 53 351 347
296 297 303 315 330 325 321 320 327 320 327 327 333 331 323 316 303 299 293 294 295 278 272 257 243 250 241 259 265 273 267 264 nan nan nan nan nan nan nan nan 4 342 354
259 286 291 304 325 330 319 323 311 318 320 323 326 316 308 306 302 288 281 279 274 259 262 257 239 251 228 265 272 280 287 190 nan nan nan nan nan nan nan nan nan nan 358
259 261 268 302 297 322 321 315 315 287 308 311 310 314 317 314 314 303 285 270 248 244 258 257 247 249 226 263 269 255 243 nan nan nan nan nan nan nan nan nan nan nan nan
257 274 283 292 302 309 318 319 317 292 297 313 315 317 325 322 322 319 305 275 252 253 255 255 258 251 246 249 255 nan nan nan nan nan nan nan nan nan nan nan nan nan nan
263 266 252 296 295 288 299 312 315 299 306 323 322 325 331 328 328 322 319 294 274 265 254 239 247 251 238 nan nan nan nan nan nan nan nan nan nan nan nan nan nan nan nan
267 273 263 268 291 280 295 308 318 308 303 314 319 326 329 334 326 324 324 295 285 265 255 262 272 317 281 nan nan nan nan nan nan nan nan nan nan nan nan nan nan nan nan
263 275 278 249 278 283 287 308 310 314 300 297 313 324 334 340 337 323 312 307 290 263 258 264 275 284 276 nan nan nan nan nan nan nan nan nan nan nan nan nan nan nan nan
246 261 273 268 268 275 284 301 311 304 308 308 306 312 324 339 348 347 319 307 297 283 285 282 275 269 263 261 nan nan nan nan nan nan nan nan nan nan nan nan nan nan nan
248 252 254 280 278 274 279 293 294 300 304 310 300 299 308 320 332 336 324 323 311 303 294 282 283 275 263 252 nan nan nan nan nan nan nan nan nan nan nan nan nan nan nan
247 244 242 251 277 273 273 281 288 302 303 309 299 293 297 306 316 326 323 318 322 327 309 307 288 268 251 251 239 249 nan nan nan nan nan nan nan nan nan nan nan nan nan
246 246 244 246 248 277 274 279 285 300 309 307 303 296 294 294 298 305 313 330 333 333 324 329 308 261 252 257 271 270 192 nan nan nan nan nan nan nan nan nan nan nan nan
246 248 242 242 243 241 270 276 278 295 302 308 300 286 286 295 296 291 285 318 344 331 341 329 346 287 299 295 284 204 204 238 nan nan nan nan nan nan nan nan nan nan nan